{"data":{"norad_id":50486,"intl_designator":"2021-132T","name":"ONEWEB-0406","alt_names":[],"object_type":"PAYLOAD","status":"ACTIVE","operator":null,"country":"UK","launch_date":"2021-12-27","launch_site_code":"TYMSC","launch_vehicle":null,"mission":null,"orbit_class":"UNKNOWN","rcs_meters":null,"size_class":null,"mass_kg":null,"dimensions":null,"purposes":["comms"],"wikipedia_slug":null,"has_3d_model":false,"image_url":null,"decayed_at":null,"tle_current":{"epoch":"2026-05-25T01:22:00.347808Z","epoch_age_seconds":70449,"freshness":"FRESH","line1":"1 50486U 21132T   26145.05694847 -.00000032  00000+0 -11345-3 0  9996","line2":"2 50486  87.9160 340.0604 0002337  97.0181 263.1217 13.18687825218578","mean_motion":13.18687825,"eccentricity":0.0002337,"inclination_deg":87.916,"raan_deg":340.0604,"arg_perigee_deg":97.0181,"mean_anomaly_deg":263.1217,"bstar":-0.00011345,"rev_number":21857,"period_min":109.19946121441,"perigee_km":1187.9675325254,"apogee_km":1191.5047564332,"semimajor_km":7567.8731444793,"source":"CELESTRAK","updated_at":"2026-05-25T13:38:22.531647Z"}}}